Вернуться в каталог

STARLINK-33912

АктивенСвязьVLEO
NORAD 64107·PAYLOAD·🇺🇸 United States

Запущен May 23, 2025 с Vandenberg Space Force Base

Loading…

Ближайшие Пролёты (ближайшие 24 часа)

TLE

СвежийSource: CelesTrak SupGP

Эпоха: Sep 15, 2026, 02:52 UTC

1 64107C 25110M   26258.11993056 -.00053663  00000+0 -17255-2 0  2588
2 64107  53.1597 225.4870 0001373  89.0881 309.6744 15.31731065    12

Отслеживайте STARLINK-33912 в реальном времени с AllMySat

Download on the App Store